AWE623 KDCA-KORD

Flight info

Callsign AWE623
Flight time 1h 26m
Altitude 35000
Route WYNGS5 RAMAY Q72 HACKS J149 ROD WATSN4
Aircraft A320/M-SDE3FGHIRWY/LB1

Departure

Time 2026-05-05 21:57
Airport Ronald Reagan Washington National Airport (KDCA)

Arrival

Time 2026-05-05 23:24
Airport Chicago O'Hare International Airport (KORD)
Time Latitude Longitude Altitude Speed Heading
2026-05-05 21:25 38.85422 -77.04070 30 ft 0 kts 262°
2026-05-05 21:48 38.85424 -77.04043 29 ft 4 kts 279°
2026-05-05 21:49 38.85414 -77.04014 26 ft 4 kts 321°
2026-05-05 21:49 38.85392 -77.04001 24 ft 2 kts 355°
2026-05-05 21:49 38.85390 -77.04000 24 ft 0 kts 355°
2026-05-05 21:53 38.85390 -77.04001 24 ft 0 kts 355°
2026-05-05 21:53 38.85408 -77.04002 29 ft 7 kts 355°
2026-05-05 21:53 38.85488 -77.04012 26 ft 15 kts 352°
2026-05-05 21:54 38.85578 -77.03970 27 ft 15 kts 35°
2026-05-05 21:54 38.85688 -77.03971 28 ft 18 kts 353°
2026-05-05 21:54 38.85839 -77.03986 27 ft 25 kts 356°
2026-05-05 21:54 38.85980 -77.03991 26 ft 15 kts
2026-05-05 21:55 38.86012 -77.03980 27 ft 0 kts 16°
2026-05-05 21:55 38.86015 -77.03979 27 ft 4 kts 16°
2026-05-05 21:56 38.86076 -77.03941 24 ft 16 kts 46°
2026-05-05 21:56 38.86037 -77.03861 24 ft 13 kts 178°
2026-05-05 21:56 38.85947 -77.03855 27 ft 21 kts 175°
2026-05-05 21:56 38.85548 -77.03816 26 ft 91 kts 176°
2026-05-05 21:57 38.84738 -77.03734 25 ft 140 kts 175°
2026-05-05 21:57 38.83713 -77.03641 386 ft 147 kts 176°
2026-05-05 21:57 38.82705 -77.03562 947 ft 144 kts 178°
2026-05-05 21:57 38.81623 -77.03507 1057 ft 177 kts 178°
2026-05-05 21:58 38.80282 -77.03447 1317 ft 206 kts 179°
2026-05-05 21:58 38.78772 -77.03428 1796 ft 227 kts 180°
2026-05-05 21:58 38.77131 -77.03455 2407 ft 244 kts 182°
2026-05-05 21:58 38.75377 -77.03540 3088 ft 260 kts 183°
2026-05-05 21:59 38.73532 -77.03686 3823 ft 271 kts 185°
2026-05-05 21:59 38.71610 -77.03968 4390 ft 289 kts 195°
2026-05-05 21:59 38.69820 -77.05271 4707 ft 311 kts 226°
2026-05-05 21:59 38.68691 -77.07723 4953 ft 334 kts 255°
2026-05-05 22:00 38.68580 -77.10768 5098 ft 356 kts 280°
2026-05-05 22:00 38.69298 -77.13828 5130 ft 362 kts 292°
2026-05-05 22:00 38.70366 -77.16752 5126 ft 363 kts 297°
2026-05-05 22:00 38.71545 -77.19610 5128 ft 363 kts 298°
2026-05-05 22:01 38.72707 -77.22483 5128 ft 363 kts 296°
2026-05-05 22:01 38.73868 -77.25392 5622 ft 368 kts 301°
2026-05-05 22:01 38.75255 -77.28147 6371 ft 370 kts 302°
2026-05-05 22:01 38.76628 -77.30960 7068 ft 373 kts 301°
2026-05-05 22:02 38.77987 -77.33815 7740 ft 377 kts 301°
2026-05-05 22:02 38.79349 -77.36702 8401 ft 381 kts 301°
2026-05-05 22:02 38.80727 -77.39618 9048 ft 384 kts 301°
2026-05-05 22:02 38.82122 -77.42561 9685 ft 388 kts 301°
2026-05-05 22:03 38.83054 -77.44525 10107 ft 390 kts 301°
2026-05-05 22:03 38.84471 -77.47505 10725 ft 393 kts 301°
2026-05-05 22:03 38.85906 -77.50507 11323 ft 397 kts 301°
2026-05-05 22:03 38.87359 -77.53541 11925 ft 400 kts 301°
2026-05-05 22:04 38.88820 -77.56594 12512 ft 404 kts 301°
2026-05-05 22:04 38.90300 -77.59690 13118 ft 407 kts 301°
2026-05-05 22:04 38.91785 -77.62801 13713 ft 411 kts 301°
2026-05-05 22:04 38.93223 -77.65987 14275 ft 414 kts 295°
2026-05-05 22:05 38.94158 -77.69495 14801 ft 418 kts 282°
2026-05-05 22:05 38.94461 -77.73218 15317 ft 421 kts 272°
2026-05-05 22:05 38.94588 -77.76988 15821 ft 424 kts 272°
2026-05-05 22:05 38.94716 -77.80779 16298 ft 426 kts 272°
2026-05-05 22:06 38.94845 -77.84604 16768 ft 429 kts 272°
2026-05-05 22:06 38.94974 -77.88441 17218 ft 432 kts 272°
2026-05-05 22:06 38.95103 -77.92262 17644 ft 435 kts 272°
2026-05-05 22:06 38.95238 -77.96167 18077 ft 438 kts 272°
2026-05-05 22:07 38.95371 -78.00085 18485 ft 441 kts 272°
2026-05-05 22:07 38.95504 -78.04032 18870 ft 444 kts 272°
2026-05-05 22:07 38.95636 -78.08008 19285 ft 447 kts 272°
2026-05-05 22:07 38.95768 -78.11999 19702 ft 448 kts 272°
2026-05-05 22:08 38.95899 -78.16018 20085 ft 451 kts 272°
2026-05-05 22:08 38.96029 -78.20057 20440 ft 453 kts 272°
2026-05-05 22:08 38.96175 -78.24107 20770 ft 455 kts 273°
2026-05-05 22:08 38.96392 -78.28173 21083 ft 457 kts 274°
2026-05-05 22:09 38.96662 -78.32254 21380 ft 459 kts 275°
2026-05-05 22:09 38.96961 -78.36352 21666 ft 461 kts 275°
2026-05-05 22:09 38.97265 -78.40463 21949 ft 463 kts 275°
2026-05-05 22:09 38.97562 -78.44598 22214 ft 465 kts 275°
2026-05-05 22:10 38.97843 -78.48743 22470 ft 467 kts 275°
2026-05-05 22:10 38.98111 -78.52920 22700 ft 470 kts 274°
2026-05-05 22:10 38.98368 -78.57110 22950 ft 471 kts 274°
2026-05-05 22:10 38.98620 -78.61324 23159 ft 474 kts 274°
2026-05-05 22:11 38.98874 -78.65556 23379 ft 476 kts 274°
2026-05-05 22:11 38.99132 -78.69819 23613 ft 478 kts 274°
2026-05-05 22:11 38.99390 -78.74064 23830 ft 479 kts 274°
2026-05-05 22:11 38.99650 -78.78336 24032 ft 480 kts 274°
2026-05-05 22:12 38.99909 -78.82627 24215 ft 481 kts 274°
2026-05-05 22:12 39.00169 -78.86928 24389 ft 482 kts 274°
2026-05-05 22:12 39.00429 -78.91243 24535 ft 484 kts 274°
2026-05-05 22:12 39.00751 -78.95552 24708 ft 484 kts 280°
2026-05-05 22:13 39.01708 -78.99691 24862 ft 485 kts 293°
2026-05-05 22:13 39.03067 -79.03606 25004 ft 485 kts 294°
2026-05-05 22:13 39.04458 -79.07566 25135 ft 486 kts 294°
2026-05-05 22:13 39.05853 -79.11520 25252 ft 487 kts 294°
2026-05-05 22:14 39.07256 -79.15490 25379 ft 487 kts 294°
2026-05-05 22:14 39.08658 -79.19472 25506 ft 487 kts 294°
2026-05-05 22:14 39.10053 -79.23447 25629 ft 488 kts 294°
2026-05-05 22:14 39.11451 -79.27439 25754 ft 488 kts 294°
2026-05-05 22:15 39.12851 -79.31438 25879 ft 489 kts 294°
2026-05-05 22:15 39.14249 -79.35439 26005 ft 490 kts 294°
2026-05-05 22:15 39.15645 -79.39447 26129 ft 491 kts 294°
2026-05-05 22:15 39.17040 -79.43464 26254 ft 491 kts 294°
2026-05-05 22:16 39.18438 -79.47491 26377 ft 491 kts 294°
2026-05-05 22:16 39.19834 -79.51511 26504 ft 491 kts 294°
2026-05-05 22:16 39.21227 -79.55528 26639 ft 491 kts 294°
2026-05-05 22:16 39.22617 -79.59534 26803 ft 489 kts 294°
2026-05-05 22:17 39.24008 -79.63545 26939 ft 489 kts 294°
2026-05-05 22:17 39.25391 -79.67548 27082 ft 489 kts 294°
2026-05-05 22:17 39.26770 -79.71548 27245 ft 488 kts 294°
2026-05-05 22:17 39.28128 -79.75505 27387 ft 488 kts 294°
2026-05-05 22:18 39.29500 -79.79510 27531 ft 487 kts 294°
2026-05-05 22:18 39.30871 -79.83514 27708 ft 486 kts 294°
2026-05-05 22:18 39.32235 -79.87501 27876 ft 486 kts 294°
2026-05-05 22:18 39.33604 -79.91492 28041 ft 485 kts 294°
2026-05-05 22:19 39.34971 -79.95467 28210 ft 484 kts 294°
2026-05-05 22:19 39.36312 -79.99378 29122 ft 466 kts 294°
2026-05-05 22:19 39.37598 -80.03145 30272 ft 447 kts 294°
2026-05-05 22:19 39.38822 -80.06740 31448 ft 427 kts 294°
2026-05-05 22:20 39.39993 -80.10187 32612 ft 407 kts 294°
2026-05-05 22:20 39.41098 -80.13443 33439 ft 397 kts 293°
2026-05-05 22:20 39.42212 -80.16728 33767 ft 398 kts 293°
2026-05-05 22:20 39.43327 -80.20024 33960 ft 402 kts 293°
2026-05-05 22:21 39.44461 -80.23378 34010 ft 410 kts 293°
2026-05-05 22:21 39.46792 -80.30286 34011 ft 427 kts 293°
2026-05-05 22:22 39.49225 -80.37485 34011 ft 445 kts 293°
2026-05-05 22:22 39.51724 -80.44909 34009 ft 460 kts 293°
2026-05-05 22:23 39.54310 -80.52612 34010 ft 471 kts 293°
2026-05-05 22:23 39.56914 -80.60412 34009 ft 471 kts 293°
2026-05-05 22:24 39.59517 -80.68213 34009 ft 470 kts 293°
2026-05-05 22:24 39.62105 -80.75994 34008 ft 470 kts 293°
2026-05-05 22:25 39.64688 -80.83793 34010 ft 470 kts 293°
2026-05-05 22:25 39.67259 -80.91544 34008 ft 470 kts 293°
2026-05-05 22:26 39.69838 -80.99347 34009 ft 470 kts 293°
2026-05-05 22:26 39.72404 -81.07152 34009 ft 470 kts 293°
2026-05-05 22:27 39.74968 -81.14965 34009 ft 470 kts 293°
2026-05-05 22:27 39.77526 -81.22788 34010 ft 470 kts 293°
2026-05-05 22:28 39.80062 -81.30573 34009 ft 470 kts 292°
2026-05-05 22:28 39.82606 -81.38412 34009 ft 470 kts 292°
2026-05-05 22:29 39.85154 -81.46251 34009 ft 470 kts 292°
2026-05-05 22:29 39.87695 -81.54082 34009 ft 469 kts 292°
2026-05-05 22:30 39.90220 -81.61921 34007 ft 469 kts 292°
2026-05-05 22:30 39.92723 -81.69717 34009 ft 469 kts 292°
2026-05-05 22:31 39.95243 -81.77569 34007 ft 469 kts 292°
2026-05-05 22:31 39.97749 -81.85413 34010 ft 469 kts 292°
2026-05-05 22:32 40.00257 -81.93284 34010 ft 469 kts 292°
2026-05-05 22:32 40.02744 -82.01102 34009 ft 469 kts 292°
2026-05-05 22:33 40.05237 -82.08967 34008 ft 469 kts 292°
2026-05-05 22:33 40.07733 -82.16838 34009 ft 469 kts 292°
2026-05-05 22:34 40.10220 -82.24713 34008 ft 469 kts 292°
2026-05-05 22:34 40.12697 -82.32588 34010 ft 469 kts 292°
2026-05-05 22:35 40.15177 -82.40501 34010 ft 469 kts 292°
2026-05-05 22:35 40.17648 -82.48404 34009 ft 469 kts 292°
2026-05-05 22:36 40.20115 -82.56320 34009 ft 470 kts 292°
2026-05-05 22:36 40.22569 -82.64227 34010 ft 470 kts 292°
2026-05-05 22:37 40.25026 -82.72166 34010 ft 470 kts 292°
2026-05-05 22:37 40.27465 -82.80049 34008 ft 470 kts 292°
2026-05-05 22:38 40.29915 -82.87992 34010 ft 469 kts 292°
2026-05-05 22:38 40.32355 -82.95934 34010 ft 469 kts 291°
2026-05-05 22:39 40.34786 -83.03871 34008 ft 469 kts 291°
2026-05-05 22:39 40.37208 -83.11815 34009 ft 469 kts 291°
2026-05-05 22:40 40.39630 -83.19778 34009 ft 469 kts 291°
2026-05-05 22:40 40.42034 -83.27684 34009 ft 469 kts 291°
2026-05-05 22:41 40.44446 -83.35654 34010 ft 469 kts 291°
2026-05-05 22:41 40.46854 -83.43627 34009 ft 469 kts 291°
2026-05-05 22:42 40.49253 -83.51600 34009 ft 469 kts 291°
2026-05-05 22:42 40.51648 -83.59584 34010 ft 469 kts 291°
2026-05-05 22:43 40.54032 -83.67571 34008 ft 470 kts 291°
2026-05-05 22:43 40.56419 -83.75577 34009 ft 470 kts 291°
2026-05-05 22:44 40.58806 -83.83589 34010 ft 470 kts 291°
2026-05-05 22:44 40.61163 -83.91543 34010 ft 470 kts 291°
2026-05-05 22:45 40.63533 -83.99575 34007 ft 470 kts 291°
2026-05-05 22:45 40.65890 -84.07591 34010 ft 469 kts 291°
2026-05-05 22:46 40.68249 -84.15615 34010 ft 469 kts 291°
2026-05-05 22:46 40.70599 -84.23646 34007 ft 469 kts 291°
2026-05-05 22:47 40.72924 -84.31619 34010 ft 469 kts 291°
2026-05-05 22:47 40.75263 -84.39649 34007 ft 469 kts 291°
2026-05-05 22:48 40.77597 -84.47689 34009 ft 469 kts 291°
2026-05-05 22:48 40.79926 -84.55733 34007 ft 469 kts 291°
2026-05-05 22:49 40.81860 -84.62435 34007 ft 469 kts 290°
2026-05-05 22:49 40.84177 -84.70500 34007 ft 469 kts 290°
2026-05-05 22:50 40.86490 -84.78571 34010 ft 469 kts 290°
2026-05-05 22:50 40.88789 -84.86636 34010 ft 469 kts 290°
2026-05-05 22:51 40.91094 -84.94729 34010 ft 469 kts 290°
2026-05-05 22:51 40.93373 -85.02746 33725 ft 466 kts 290°
2026-05-05 22:51 40.94511 -85.06758 32788 ft 467 kts 290°
2026-05-05 22:52 40.95652 -85.10794 31791 ft 469 kts 290°
2026-05-05 22:52 40.96805 -85.14841 30746 ft 471 kts 292°
2026-05-05 22:52 40.98293 -85.18709 29681 ft 473 kts 302°
2026-05-05 22:52 41.00254 -85.22217 28550 ft 474 kts 311°
2026-05-05 22:53 41.02487 -85.25448 27353 ft 477 kts 312°
2026-05-05 22:53 41.04725 -85.28676 27083 ft 479 kts 312°
2026-05-05 22:53 41.06984 -85.31940 26948 ft 482 kts 312°
2026-05-05 22:53 41.09257 -85.35231 26824 ft 483 kts 312°
2026-05-05 22:54 41.11525 -85.38526 26700 ft 484 kts 312°
2026-05-05 22:54 41.13795 -85.41835 26573 ft 484 kts 312°
2026-05-05 22:54 41.15982 -85.45155 26447 ft 484 kts 307°
2026-05-05 22:54 41.17800 -85.48907 26319 ft 484 kts 297°
2026-05-05 22:55 41.19107 -85.53012 26205 ft 483 kts 288°
2026-05-05 22:55 41.20127 -85.57259 26007 ft 482 kts 287°
2026-05-05 22:55 41.21142 -85.61491 25755 ft 480 kts 288°
2026-05-05 22:55 41.22160 -85.65729 25397 ft 481 kts 288°
2026-05-05 22:56 41.23176 -85.69960 25030 ft 482 kts 288°
2026-05-05 22:56 41.24196 -85.74220 24994 ft 483 kts 287°
2026-05-05 22:56 41.25211 -85.78485 25005 ft 484 kts 287°
2026-05-05 22:56 41.26223 -85.82742 24714 ft 479 kts 287°
2026-05-05 22:57 41.27000 -85.87018 23771 ft 472 kts 278°
2026-05-05 22:57 41.27374 -85.91324 22840 ft 465 kts 276°
2026-05-05 22:57 41.27714 -85.95578 21923 ft 460 kts 276°
2026-05-05 22:57 41.28046 -85.99773 21042 ft 454 kts 276°
2026-05-05 22:58 41.28378 -86.03922 20186 ft 448 kts 276°
2026-05-05 22:58 41.28769 -86.08003 19333 ft 443 kts 278°
2026-05-05 22:58 41.29228 -86.12036 18277 ft 441 kts 279°
2026-05-05 22:58 41.29734 -86.16066 17617 ft 442 kts 279°
2026-05-05 22:59 41.30256 -86.20108 17230 ft 444 kts 279°
2026-05-05 22:59 41.30768 -86.24145 16903 ft 442 kts 279°
2026-05-05 22:59 41.31256 -86.28133 16689 ft 441 kts 279°
2026-05-05 22:59 41.31732 -86.32163 16540 ft 440 kts 278°
2026-05-05 23:00 41.32658 -86.40204 16333 ft 439 kts 278°
2026-05-05 23:00 41.33111 -86.44214 16252 ft 438 kts 278°
2026-05-05 23:00 41.33563 -86.48226 16179 ft 438 kts 278°
2026-05-05 23:01 41.34064 -86.52231 16107 ft 437 kts 283°
2026-05-05 23:01 41.34975 -86.56032 16033 ft 437 kts 292°
2026-05-05 23:01 41.36313 -86.59658 15968 ft 436 kts 297°
2026-05-05 23:01 41.37702 -86.63251 15902 ft 436 kts 297°
2026-05-05 23:02 41.39333 -86.66638 15834 ft 436 kts 308°
2026-05-05 23:02 41.41435 -86.69539 15768 ft 435 kts 320°
2026-05-05 23:02 41.43926 -86.71825 15705 ft 435 kts 331°
2026-05-05 23:02 41.46642 -86.73618 15642 ft 435 kts 334°
2026-05-05 23:03 41.49330 -86.75359 14949 ft 427 kts 334°
2026-05-05 23:03 41.52013 -86.77035 14071 ft 423 kts 338°
2026-05-05 23:03 41.54828 -86.78127 13268 ft 418 kts 349°
2026-05-05 23:03 41.57703 -86.78543 12531 ft 414 kts 355°
2026-05-05 23:04 41.60577 -86.78824 12228 ft 414 kts 355°
2026-05-05 23:04 41.63451 -86.79106 12104 ft 414 kts 355°
2026-05-05 23:04 41.66319 -86.79389 12132 ft 406 kts 355°
2026-05-05 23:04 41.68995 -86.79688 12133 ft 365 kts 354°
2026-05-05 23:05 41.71398 -86.79994 12135 ft 330 kts 354°
2026-05-05 23:05 41.73581 -86.80293 12135 ft 303 kts 353°
2026-05-05 23:05 41.75624 -86.80577 12135 ft 284 kts 354°
2026-05-05 23:05 41.77505 -86.80837 12133 ft 260 kts 353°
2026-05-05 23:06 41.79230 -86.81166 12137 ft 244 kts 350°
2026-05-05 23:06 41.80888 -86.81550 12135 ft 238 kts 349°
2026-05-05 23:06 41.82486 -86.81937 12177 ft 231 kts 349°
2026-05-05 23:06 41.84041 -86.82337 12137 ft 229 kts 346°
2026-05-05 23:07 41.85559 -86.82975 12131 ft 228 kts 338°
2026-05-05 23:07 41.87001 -86.83864 12136 ft 228 kts 330°
2026-05-05 23:07 41.88301 -86.85069 12135 ft 224 kts 322°
2026-05-05 23:07 41.89502 -86.86324 12128 ft 216 kts 321°
2026-05-05 23:08 41.90671 -86.87595 12140 ft 216 kts 320°
2026-05-05 23:08 41.91830 -86.88876 12140 ft 216 kts 320°
2026-05-05 23:08 41.92984 -86.90164 12139 ft 216 kts 320°
2026-05-05 23:08 41.94005 -86.91607 12137 ft 209 kts 303°
2026-05-05 23:09 41.94626 -86.93341 12137 ft 204 kts 286°
2026-05-05 23:09 41.94876 -86.95213 12138 ft 203 kts 278°
2026-05-05 23:09 41.95079 -86.97090 12138 ft 203 kts 278°
2026-05-05 23:09 41.95285 -86.98971 12137 ft 203 kts 278°
2026-05-05 23:10 41.95487 -87.00800 11873 ft 199 kts 278°
2026-05-05 23:10 41.95689 -87.02635 11401 ft 198 kts 278°
2026-05-05 23:10 41.95890 -87.04464 10921 ft 198 kts 278°
2026-05-05 23:10 41.96090 -87.06285 10453 ft 196 kts 278°
2026-05-05 23:11 41.96289 -87.08094 9987 ft 195 kts 278°
2026-05-05 23:11 41.96487 -87.09891 9519 ft 193 kts 278°
2026-05-05 23:11 41.96682 -87.11669 9157 ft 190 kts 278°
2026-05-05 23:11 41.96874 -87.13439 9145 ft 193 kts 278°
2026-05-05 23:12 41.97068 -87.15243 9145 ft 199 kts 278°
2026-05-05 23:12 41.97271 -87.17116 9141 ft 204 kts 278°
2026-05-05 23:12 41.97476 -87.19009 9139 ft 205 kts 278°
2026-05-05 23:12 41.97680 -87.20911 9137 ft 205 kts 278°
2026-05-05 23:13 41.97881 -87.22786 9138 ft 205 kts 278°
2026-05-05 23:13 41.98084 -87.24681 9137 ft 205 kts 278°
2026-05-05 23:13 41.98290 -87.26584 9138 ft 205 kts 278°
2026-05-05 23:13 41.98494 -87.28455 8854 ft 201 kts 278°
2026-05-05 23:14 41.98671 -87.30324 8414 ft 201 kts 273°
2026-05-05 23:14 41.98685 -87.32194 8033 ft 198 kts 270°
2026-05-05 23:14 41.98691 -87.34033 7717 ft 192 kts 270°
2026-05-05 23:14 41.98697 -87.35768 7338 ft 184 kts 270°
2026-05-05 23:15 41.98706 -87.37484 6752 ft 184 kts 270°
2026-05-05 23:15 41.98710 -87.39196 6186 ft 183 kts 270°
2026-05-05 23:15 41.98715 -87.40893 6017 ft 182 kts 270°
2026-05-05 23:15 41.98722 -87.42605 6014 ft 184 kts 270°
2026-05-05 23:16 41.98729 -87.44318 6008 ft 183 kts 270°
2026-05-05 23:16 41.98736 -87.45988 5604 ft 178 kts 270°
2026-05-05 23:16 41.98742 -87.47661 5016 ft 179 kts 270°
2026-05-05 23:16 41.98749 -87.49330 4457 ft 178 kts 270°
2026-05-05 23:17 41.98755 -87.50985 4049 ft 175 kts 270°
2026-05-05 23:17 41.98760 -87.52610 4017 ft 178 kts 270°
2026-05-05 23:17 41.98766 -87.54260 4013 ft 172 kts 270°
2026-05-05 23:17 41.98771 -87.55854 4014 ft 169 kts 270°
2026-05-05 23:18 41.98776 -87.57434 4014 ft 168 kts 270°
2026-05-05 23:18 41.98781 -87.58972 3690 ft 163 kts 270°
2026-05-05 23:18 41.98785 -87.60508 3200 ft 164 kts 270°
2026-05-05 23:18 41.98790 -87.62041 2739 ft 164 kts 270°
2026-05-05 23:19 41.98793 -87.63566 2289 ft 162 kts 270°
2026-05-05 23:19 41.98797 -87.65070 2221 ft 163 kts 270°
2026-05-05 23:19 41.98801 -87.66598 2219 ft 164 kts 270°
2026-05-05 23:19 41.98804 -87.68129 2217 ft 162 kts 270°
2026-05-05 23:20 41.98807 -87.69578 2210 ft 150 kts 270°
2026-05-05 23:20 41.98810 -87.70941 2211 ft 146 kts 270°
2026-05-05 23:20 41.98812 -87.72301 2213 ft 145 kts 270°
2026-05-05 23:20 41.98815 -87.73653 2215 ft 144 kts 270°
2026-05-05 23:21 41.98817 -87.75000 2216 ft 144 kts 270°
2026-05-05 23:21 41.98819 -87.76347 2216 ft 144 kts 270°
2026-05-05 23:21 41.98821 -87.77694 2216 ft 144 kts 270°
2026-05-05 23:21 41.98823 -87.79047 2101 ft 146 kts 270°
2026-05-05 23:22 41.98829 -87.80400 1774 ft 143 kts 270°
2026-05-05 23:22 41.98836 -87.81735 1519 ft 142 kts 270°
2026-05-05 23:22 41.98827 -87.83063 1409 ft 143 kts 269°
2026-05-05 23:22 41.98826 -87.84375 1258 ft 141 kts 270°
2026-05-05 23:23 41.98831 -87.85709 1093 ft 142 kts 270°
2026-05-05 23:23 41.98831 -87.87038 925 ft 142 kts 270°
2026-05-05 23:23 41.98831 -87.88363 798 ft 142 kts 270°
2026-05-05 23:23 41.98835 -87.89683 669 ft 134 kts 270°
2026-05-05 23:24 41.98835 -87.90692 673 ft 85 kts 270°
2026-05-05 23:24 41.98832 -87.91248 666 ft 36 kts 268°
2026-05-05 23:24 41.98791 -87.91479 668 ft 18 kts 243°
2026-05-05 23:24 41.98731 -87.91624 669 ft 20 kts 242°
2026-05-05 23:25 41.98668 -87.91799 672 ft 20 kts 231°
2026-05-05 23:25 41.98531 -87.91821 669 ft 23 kts 179°
2026-05-05 23:25 41.98363 -87.91822 669 ft 25 kts 180°
2026-05-05 23:25 41.98284 -87.91738 670 ft 14 kts 80°
2026-05-05 23:26 41.98265 -87.91567 667 ft 23 kts 121°
2026-05-05 23:26 41.98171 -87.91359 664 ft 25 kts 121°
2026-05-05 23:26 41.98136 -87.91222 664 ft 7 kts 30°
2026-05-05 23:26 41.98192 -87.91172 664 ft 16 kts 44°
2026-05-05 23:27 41.98274 -87.91020 661 ft 23 kts 59°
2026-05-05 23:27 41.98237 -87.90863 662 ft 21 kts 170°
2026-05-05 23:27 41.98103 -87.90851 662 ft 16 kts 182°
2026-05-05 23:27 41.98065 -87.90925 663 ft 0 kts 279°
2026-05-05 23:28 41.98064 -87.90926 663 ft 0 kts 277°
2026-05-05 23:28 41.98065 -87.90931 664 ft 1 kts 274°